Location: Unspecified
(0.0000°N, 0.0000°E)
Time: 07:23:14
(UTC+00:00)

ISS - Visible Passes

Search period start: 10 June 2023 00:00
Search period end: 20 June 2023 00:00
Orbit: 411 x 418 km, 51.6° (Epoch: 10 June)

Date Brightness Start Highest point End Pass type
(mag) Time Alt. Az. Time Alt. Az. Time Alt. Az.
10 Jun -3.3 18:24:54 10° NNW 18:28:05 44° NE 18:31:17 10° SE visible
11 Jun -1.0 19:13:53 10° W 19:15:38 14° SW 19:17:24 10° SSW visible
12 Jun -0.9 05:13:12 10° SSE 05:14:42 12° SE 05:16:12 10° E visible
12 Jun -2.1 18:23:39 10° WNW 18:26:38 30° SW 18:29:38 10° S visible
14 Jun -3.3 05:10:07 11° SSW 05:13:13 59° SE 05:16:29 10° NE visible
15 Jun -1.9 04:23:38 22° SE 04:24:10 23° SE 04:26:52 10° ENE visible
16 Jun -2.4 05:10:01 17° W 05:11:34 24° NW 05:14:20 10° N visible
17 Jun -2.8 04:23:23 41° N 04:23:23 41° N 04:25:46 10° NNE visible
